Location: The D'Auria's Ocala Star Observatory
(29.0276°N, 82.1742°W)
Time: 02:49:11
(UTC-04:00)

Daily predictions for brighter satellites

Satellite Brightness Start Highest point End
(mag) Time Altitude Azimuth Time Altitude Azimuth Time Altitude Azimuth
Terra 4.5 00:28:41 15° NW 00:28:41 15° NW 00:29:42 10° NW
Cosmos 2297 Rocket 4.4 00:31:15 10° N 00:33:14 18° NNE 00:33:14 18° NNE
ATLAS 5 CENTAUR R/B 4.5 00:38:43 10° NW 00:41:01 20° WNW 00:41:01 20° WNW
Cosmos 2227 Rocket 4.4 01:19:40 10° NNW 01:21:18 20° NNW 01:21:18 20° NNW
Cosmos 1980 Rocket 4.4 01:48:17 20° NNE 01:48:17 20° NNE 01:49:57 10° NNE
USA 234 4.2 02:19:35 10° NE 02:23:38 41° NNE 02:23:38 41° NNE
SL-16 R/B 4.1 02:30:23 25° NNE 02:30:23 25° NNE 02:32:38 10° NNE
Cosmos 2322 Rocket 4.0 02:38:35 27° NNE 02:38:35 27° NNE 02:41:06 10° NNE
CZ-4C R/B 3.5 02:32:16 10° NNW 02:38:04 55° N 02:38:04 55° N
ATLAS 2AS CENTAUR R/B 4.2 02:43:39 31° E 02:43:39 31° E 02:49:10 10° NE
ADEOS Rocket 4.4 02:38:30 10° NNE 02:41:50 30° NE 02:41:50 30° NE
Resurs 1-4 Rocket 4.2 02:53:06 10° NE 02:55:27 21° ENE 02:55:27 21° ENE
CZ-3C R/B 4.3 03:00:14 58° SW 03:04:16 67° S 05:21:19 10° ESE
CZ-3 Stage 3 4.4 03:12:41 62° SW 03:15:57 76° SSE 04:52:02 10° E
CZ-2D R/B 3.4 03:15:39 10° NNE 03:19:19 36° ENE 03:19:19 36° ENE
Cosmos 2263 Rocket 3.2 03:20:56 10° N 03:24:59 43° NNE 03:24:59 43° NNE
Cosmos 2360 Rocket 3.2 03:29:01 44° NNE 03:29:01 44° NNE 03:32:46 10° NNE
SL-16 R/B 3.3 03:26:51 45° E 03:27:27 47° ENE 03:33:24 10° N
Cosmos 2219 Rocket 4.0 03:31:08 21° E 03:31:08 21° E 03:35:16 10° NE
COSMOS 2428 3.8 03:34:05 39° E 03:34:05 39° E 03:38:33 10° NE
Iridium 4 Rocket 4.5 03:35:51 50° ENE 03:35:51 50° ENE 03:40:53 10° NNE
Cosmos 2184 Rocket 4.2 03:42:25 64° N 03:42:25 64° N 03:47:34 10° N
Cosmos 2333 Rocket 3.7 03:51:26 26° ESE 03:52:10 27° ESE 03:56:51 10° NE
Cosmos 2322 4.3 03:54:10 49° NNW 03:54:10 49° NNW 03:58:30 10° NNE
Centaur D-1AR AC-40 4.2 03:46:52 10° W 04:04:52 13° SE 04:05:18 10° ESE
ADEOS 3.9 03:57:10 10° NNE 04:01:27 61° N 04:01:27 61° N
IRS-1D 4.3 04:01:19 10° N 04:04:48 43° NNW 04:04:48 43° NNW
Meteor 2-5 Rocket 4.4 04:01:03 10° N 04:06:35 51° E 04:08:27 37° SE
Cosmos 972 Rocket 4.3 04:08:18 60° NNE 04:08:18 60° NNE 04:12:19 10° NNE
SL-16 R/B 4.5 04:12:15 12° NW 04:12:15 12° NW 04:13:36 10° NW
Cosmos 2058 Rocket 4.3 04:15:38 35° NNW 04:15:38 35° NNW 04:18:24 10° N
Nadezhda 3 Rocket 4.3 04:12:04 10° N 04:18:16 63° E 04:21:11 33° SSE
Cosmos 2333 4.1 04:21:56 74° W 04:22:01 74° WNW 04:27:44 10° NNE
OAO 3 Rocket 4.2 04:21:51 37° NNW 04:22:40 40° N 04:27:16 10° ENE
Cosmos 1812 Rocket 4.5 04:24:16 41° ESE 04:24:42 42° E 04:28:49 10° NNE
Cosmos 44 4.3 04:24:51 10° NNW 04:27:11 31° NNW 04:27:11 31° NNW
Cosmos 1992 Rocket 3.8 04:29:41 82° SW 04:29:52 85° WNW 04:35:06 10° NNE
ARIANE 5 R/B 3.4 04:27:40 10° N 04:31:41 35° NW 04:31:41 35° NW
ATLAS 2AS CENTAUR R/B 3.5 04:31:06 38° W 04:33:02 45° NW 04:40:41 10° NNE
Abrixas rocket 4.0 04:34:28 30° ENE 04:34:28 30° ENE 04:36:23 10° NE
Lacrosse 5 3.5 04:33:03 21° SE 04:34:30 24° ESE 04:38:32 10° ENE
ADEOS II 3.3 04:30:16 10° NNE 04:35:06 37° E 04:38:06 20° SSE
Cosmos 2154 Rocket 4.0 04:34:55 54° WSW 04:35:42 58° W 04:41:54 10° N
NOSS 0 Rocket 4.3 04:33:48 38° SSE 04:36:03 60° ESE 04:42:08 10° NNE
Resurs 1-4 Rocket 3.3 04:32:44 10° NNW 04:36:32 27° WNW 04:36:32 27° WNW
Okean O Rocket 3.6 04:35:37 10° NE 04:39:13 24° E 04:42:12 13° SE
USA 161 3.7 04:40:09 24° E 04:40:38 25° ENE 04:43:10 10° NNE
NOSS 3-4 (A) 4.4 04:38:04 24° SSE 04:41:10 40° ESE 04:47:01 10° NE
NOSS 3-4 (C) 4.5 04:38:07 24° SSE 04:41:15 39° ESE 04:47:05 10° NE
MOZ.5/SAFIR/RUBIN 5/SL-8 3.6 04:41:24 76° SW 04:41:35 77° WSW 04:46:14 10° NNW
BREEZE-M DEB (TANK) 4.4 04:29:57 10° NW 04:43:02 66° NE 04:46:48 10° ESE
Cosmos 1805 3.6 04:47:09 52° SE 04:47:43 59° E 04:51:35 10° NNE
Cosmos 389 Rocket 3.6 04:51:44 34° NNW 04:51:44 34° NNW 04:54:05 10° N
Meteor 1-22 Rocket 4.2 04:49:54 49° SW 04:51:18 65° W 04:57:06 10° N
Cosmos 1607 4.1 04:46:09 10° NNW 04:52:38 79° ENE 04:59:03 10° SSE
Cosmos 1340 Rocket 2.6 04:50:20 10° N 04:54:17 82° W 04:54:28 78° SSW
ATLAS 2A CENTAUR R/B 4.0 04:55:35 14° ESE 04:55:35 14° ESE 04:56:18 10° ESE
CZ-2D R/B 4.3 04:51:19 10° N 04:54:51 36° WNW 04:54:51 36° WNW
Cosmos 2341 Rocket 4.2 04:54:26 40° SW 04:56:27 56° W 05:02:43 10° N
Cosmos 2366 rocket 4.4 04:51:56 15° S 04:56:57 61° E 05:03:02 10° NNE
Aureole 2 Rocket 3.4 04:57:30 41° WNW 04:57:30 41° WNW 05:01:11 10° N
Cosmos 1271 Rocket 4.5 04:59:30 21° NW 04:59:30 21° NW 05:01:38 10° NNW
BREEZE-M DEB (TANK) 4.0 04:57:13 29° WNW 04:59:09 44° NNW 05:12:01 10° NE
SEDSat Delta rocket 2.9 04:58:37 53° WNW 04:59:25 70° N 05:03:38 10° ENE
CZ-2D R/B 3.8 04:57:02 10° NNW 05:00:30 17° WNW 05:00:39 17° WNW
Cosmos 1356 Rocket 4.4 05:00:18 10° N 05:04:08 44° E 05:07:56 10° SSE
SeaSat 1 4.3 05:03:00 10° ESE 05:07:19 31° ENE 05:11:39 10° N
ATLAS 3B R/B 3.1 05:03:58 10° NNW 05:10:30 61° ENE 05:16:51 10° SE
Tiangong 1 1.3 05:11:09 52° ESE 05:11:09 52° ESE 05:13:34 10° ENE
SL-16 R/B 3.8 05:11:56 20° W 05:11:56 20° W 05:15:42 10° NW
Cosmos 1758 3.2 05:12:11 35° S 05:13:48 84° W 05:17:50 10° N
ISS -3.5 05:11:03 10° NW 05:14:17 67° NE 05:17:31 10° SE
Cosmos 2219 Rocket 2.9 05:12:53 30° WSW 05:14:43 38° WNW 05:19:59 10° N
Cosmos 864 Rocket 4.5 05:09:51 14° S 05:15:16 85° E 05:21:26 10° N
In-Cosmos 22 3.9 05:10:19 10° N 05:15:38 80° W 05:20:54 10° S
Cosmos 2218 Rocket 3.9 05:12:39 19° SSW 05:17:18 77° W 05:23:38 10° N
Cosmos 1980 3.7 05:14:41 30° SW 05:17:30 65° WNW 05:23:09 10° NNE
COSMOS 2428 4.2 05:16:07 19° W 05:17:33 21° WNW 05:21:48 10° NNW
Cosmos 2237 Rocket 2.2 05:16:08 28° SSW 05:19:07 69° WNW 05:24:43 10° NNE
BREEZE M DEB (TANK) 3.7 05:16:05 10° NW 05:19:10 69° NE 05:28:10 10° SE
Cosmos 1354 Rocket 4.2 05:14:08 10° NNW 05:19:12 47° WSW 05:23:20 15° S
Cosmos 1953 2.2 05:18:29 27° S 05:20:34 82° W 05:24:36 10° N
Cosmos 1544 4.2 05:24:19 26° W 05:24:19 26° W 05:27:29 10° NNW
PSLV R/B 3.5 05:21:08 10° N 05:25:32 88° W 05:28:50 18° SSW
Cosmos 1818 3.5 05:23:42 24° SSW 05:26:59 78° WNW 05:32:27 10° NNE
PAYLOAD B 4.2 05:24:29 10° NNE 05:30:06 90° ENE 05:35:43 10° SSW
Cosmos 1844 Rocket 2.7 05:25:01 10° NNW 05:30:33 56° WSW 05:36:04 10° S
IRS-1C Rocket 4.2 05:25:34 10° NNE 05:30:50 76° ESE 05:36:04 10° S
Kakehashi 4.3 05:28:44 20° SW 05:32:25 43° SSE 05:39:17 10° E
CZ-4B R/B 3.3 05:27:19 10° NNE 05:32:58 84° ESE 05:38:33 10° SSW
CZ-4B R/B 3.0 05:29:06 10° N 05:32:59 58° WNW 05:35:34 21° SSW
USA 238 DEB 4.0 05:27:26 10° NNW 05:34:33 75° ENE 05:41:42 10° SSE
USA 238 4.0 05:27:32 10° NNW 05:34:40 74° ENE 05:41:49 10° SE
Cosmos 1470 2.8 05:31:52 12° S 05:35:32 83° E 05:39:28 10° N
Cosmos 2333 Rocket 3.2 05:33:28 21° WSW 05:36:13 31° WNW 05:41:14 10° N
RESURS DK-1 3.6 05:34:59 10° S 05:38:50 39° ESE 05:42:43 10° NE
PSLV R/B 4.4 05:35:10 10° N 05:38:51 38° WNW 05:40:59 21° SW
Cosmos 968 Rocket 3.5 05:35:44 10° NNW 05:40:54 84° ENE 05:45:59 10° SSE
Atlas Centaur 2 1.9 05:45:39 19° SW 05:48:32 55° SSE 05:53:37 10° E
ERBS 4.3 05:50:31 13° W 05:52:19 18° NW 05:54:44 10° N
Cosmos-2242 3.0 05:48:27 10° S 05:52:42 84° E 05:56:58 10° N
Cosmos 2278 Rocket 2.3 05:51:50 10° NNW 05:57:31 88° ENE 06:03:11 10° SSE
CZ-4B DEB 4.5 05:52:55 10° N 05:58:19 51° WNW 06:03:39 10° SSW
Timation 1 Rocket 4.4 05:52:58 10° NNW 05:58:59 86° ENE 06:04:58 10° SSE
SOZ 3.9 05:58:14 14° SW 06:00:09 72° SE 06:02:48 10° NE
Cosmos 1733 4.0 06:00:40 10° SSW 06:04:12 34° W 06:07:45 10° NNW
SL-16 R/B 2.3 06:00:33 10° SSW 06:06:11 67° WNW 06:11:50 10° NNE
OAO 3 Rocket 4.0 06:01:57 10° WNW 06:06:42 53° NNE 06:11:31 10° E
Cosmos 1356 4.0 06:08:15 10° N 06:11:43 63° E 06:15:11 10° SSE
NOSS 2-2 (C) 3.7 06:10:20 10° SSW 06:14:13 66° ESE 06:18:18 10° NE
ADEOS II 3.5 06:10:45 10° NNW 06:14:30 20° WNW 06:18:13 10° WSW
Okean O Rocket 3.0 06:11:58 10° NNW 06:15:24 22° WNW 06:18:48 10° WSW
Cosmos 1842 Rocket 4.2 06:11:52 10° S 06:16:10 59° E 06:20:27 10° NNE
Lacrosse 5 2.7 06:12:31 10° WSW 06:17:13 37° NW 06:21:56 10° NNE
Feng Yun 1-1 Rocket 4.5 06:12:05 10° NNE 06:17:59 85° ESE 06:23:46 10° SSW
Cosmos 1674 3.7 06:14:58 10° NNW 06:18:17 28° W 06:21:35 10° SSW
Okean 3 Rocket 4.5 06:15:11 10° NNW 06:19:01 29° W 06:22:53 10° SSW
